Weather History for Augusta Bush, GA

Change the Weather History Date:

Wednesday, February 6, 2013

  Actual Average Record
Temperature  
Mean Temperature 54 °F 47 °F  
Max Temperature 73 °F 60 °F 80 °F (1927)
Min Temperature 35 °F 34 °F 15 °F (1966)
Degree Days  
Heating Degree Days 11 18  
Month to date heating degree days 116 108  
Since 1 July heating degree days 1441 1693  
Cooling Degree Days 0 0  
Month to date cooling degree days 0 0  
Year to date cooling degree days 15 1  
Growing Degree Days 4 (Base 50)    
Moisture  
Dew Point 38 °F    
Average Humidity 62    
Maximum Humidity 100    
Minimum Humidity 23    
Precipitation  
Precipitation 0.00 in 0.12 in 2.99 in (1899)
Month to date precipitation T 0.79  
Year to date precipitation 0.60 4.70  
Sea Level Pressure  
Sea Level Pressure 30.10 in    
Wind  
Wind Speed 2 mph (West)    
Max Wind Speed 8 mph    
Max Gust Speed 13 mph    
Visibility 4 miles    
Events Fog    
T = Trace of Precipitation, MM = Missing Value Source: NWS Daily Summary

Daily Weather History Graph

Daily Weather History Graph

Search for Another Location

Airport:

Trip Planner

Search our weather history database for the weather conditions in past years. The results will help you decide how hot, cold, wet, or windy it might be!

Date:

Astronomy

Feb. 06, 2013 Rise Set
Actual Time 7:19 AM EST 6:04 PM EST
Civil Twilight 6:53 AM EST 6:30 PM EST
Nautical Twilight 6:24 AM EST 6:59 PM EST
Astronomical Twilight 5:55 AM EST 7:28 PM EST
Moon 3:56 AM EST (2/6) 2:27 PM EST (2/6)
Length of Visible Light 11h 36m
Length of Day
10h 44m
Waning Crescent, 17% of the Moon is Illuminated
Feb 6
Waning Crescent
Feb 10
New
Feb 17
First Quarter
Feb 25
Full
Mar 4
Last Quarter

Hourly Weather History & Observations

Time (EST) Temp. Windchill Dew Point Humidity Pressure Visibility Wind Dir Wind Speed Gust Speed Precip Events Conditions
12:53 AM 44.1 °F - 43.0 °F 96% 30.04 in 3.0 mi Calm Calm - N/A   Clear
1:10 AM 42.8 °F - 42.8 °F 100% 30.04 in 1.2 mi Calm Calm - N/A   Clear
1:18 AM 44.6 °F - 42.8 °F 93% 30.04 in 0.5 mi Calm Calm - N/A Fog Fog
1:27 AM 42.8 °F - 42.8 °F 100% 30.04 in 0.2 mi Calm Calm - N/A Fog Fog
1:42 AM 44.6 °F - 44.6 °F 100% 30.05 in 1.0 mi Calm Calm - N/A   Mist
1:53 AM 43.0 °F - 43.0 °F 100% 30.04 in 0.5 mi Calm Calm - N/A Fog Fog
2:01 AM 44.6 °F - 42.8 °F 93% 30.04 in 0.2 mi Calm Calm - N/A Fog Fog
2:04 AM 44.6 °F - 42.8 °F 93% 30.04 in 0.5 mi Calm Calm - N/A Fog Fog
2:14 AM 39.2 °F - 39.2 °F 100% 30.04 in 0.2 mi Calm Calm - N/A Fog Fog
2:53 AM 39.0 °F - 37.9 °F 96% 30.04 in 0.2 mi Calm Calm - N/A Fog Fog
3:24 AM 41.0 °F - 39.2 °F 93% 30.05 in 0.8 mi Calm Calm - N/A   Mist
3:32 AM 39.2 °F 35.9 °F 39.2 °F 100% 30.05 in 0.5 mi South 4.6 mph - N/A Fog Fog
3:40 AM 39.2 °F 37.0 °F 37.4 °F 93% 30.05 in 1.0 mi South 3.5 mph - N/A   Scattered Clouds
3:53 AM 39.9 °F 36.7 °F 39.0 °F 97% 30.05 in 2.5 mi South 4.6 mph - N/A   Partly Cloudy
4:01 AM 39.2 °F - 39.2 °F 100% 30.06 in 3.0 mi Calm Calm - N/A   Scattered Clouds
4:53 AM 41.0 °F - 39.9 °F 96% 30.07 in 4.0 mi Calm Calm - N/A   Clear
5:00 AM 39.2 °F - 39.2 °F 100% 30.07 in 1.8 mi Calm Calm - N/A   Clear
5:20 AM 37.4 °F - 37.4 °F 100% 30.08 in 0.5 mi Calm Calm - N/A Fog Fog
5:27 AM 37.4 °F 33.8 °F 37.4 °F 100% 30.08 in 0.2 mi South 4.6 mph - N/A Fog Fog
5:35 AM 37.4 °F - 37.4 °F 100% 30.08 in 0.8 mi Calm Calm - N/A   Mist
5:53 AM 36.0 °F - 36.0 °F 100% 30.09 in 0.5 mi Calm Calm - N/A Fog Fog
6:20 AM 37.4 °F - 37.4 °F 100% 30.10 in 1.5 mi Calm Calm - N/A   Mostly Cloudy
6:27 AM 37.4 °F - 37.4 °F 100% 30.11 in 3.0 mi Calm Calm - N/A   Mostly Cloudy
6:45 AM 39.2 °F - 37.4 °F 93% 30.11 in 0.8 mi Calm Calm - N/A   Mist
6:53 AM 37.4 °F - 37.4 °F 100% 30.12 in 0.2 mi Calm Calm - N/A Fog Fog
6:57 AM 37.4 °F - 37.4 °F 100% 30.12 in 1.0 mi Calm Calm - N/A   Mist
7:31 AM 35.6 °F - 33.8 °F 93% 30.13 in 2.5 mi Calm Calm - N/A   Partly Cloudy
7:53 AM 36.0 °F - 36.0 °F 100% 30.14 in 2.5 mi Calm Calm - N/A   Scattered Clouds
8:48 AM 46.4 °F - 44.6 °F 93% 30.16 in 3.0 mi Calm Calm - N/A   Clear
8:53 AM 46.9 °F - 46.0 °F 97% 30.16 in 3.0 mi Calm Calm - N/A   Clear
9:53 AM 55.9 °F - 48.0 °F 75% 30.17 in 5.0 mi NW 3.5 mph - N/A   Haze
10:53 AM 63.0 °F - 46.0 °F 54% 30.18 in 10.0 mi Variable 4.6 mph - N/A   Clear
11:53 AM 66.0 °F - 39.9 °F 38% 30.16 in 10.0 mi WNW 4.6 mph - N/A   Clear
12:53 PM 68.0 °F - 35.1 °F 30% 30.14 in 10.0 mi Variable 3.5 mph - N/A   Clear
1:53 PM 70.0 °F - 30.9 °F 24% 30.12 in 10.0 mi Calm Calm - N/A   Clear
2:53 PM 72.0 °F - 32.0 °F 23% 30.11 in 10.0 mi North 4.6 mph - N/A   Clear
3:53 PM 72.0 °F - 32.0 °F 23% 30.10 in 10.0 mi ENE 4.6 mph - N/A   Clear
4:53 PM 71.1 °F - 32.0 °F 24% 30.10 in 10.0 mi North 3.5 mph - N/A   Clear
5:53 PM 66.0 °F - 33.1 °F 29% 30.11 in 10.0 mi NE 3.5 mph - N/A   Clear
6:53 PM 52.0 °F - 37.0 °F 57% 30.12 in 10.0 mi WSW 3.5 mph - N/A   Clear
7:53 PM 46.0 °F - 36.0 °F 68% 30.13 in 10.0 mi Calm Calm - N/A   Clear
8:53 PM 46.0 °F 43.9 °F 36.0 °F 68% 30.14 in 10.0 mi West 4.6 mph - N/A   Clear
9:53 PM 44.1 °F - 34.0 °F 68% 30.17 in 10.0 mi Calm Calm - N/A   Clear
10:53 PM 39.2 °F - 33.8 °F 81% 30.15 in 10.0 mi Calm Calm - N/A   Clear
11:53 PM 39.9 °F - 34.0 °F 79% 30.14 in 10.0 mi Calm Calm - N/A   Clear